Weather History for Dallas Addison, TX

Change the Weather History Date:

Friday, January 24, 2014

  Actual Average Record
Temperature  
Mean Temperature 28 °F -  
Max Temperature 41 °F 55 °F 77 °F (2013)
Min Temperature 15 °F 38 °F 15 °F (2014)
Degree Days  
Heating Degree Days 37    
Moisture  
Dew Point 2 °F    
Average Humidity 35    
Maximum Humidity 53    
Minimum Humidity 15    
Precipitation  
Precipitation 0.00 in - - ()
Sea Level Pressure  
Sea Level Pressure 30.57 in    
Wind  
Wind Speed 9 mph (WNW)    
Max Wind Speed 13 mph    
Max Gust Speed 16 mph    
Visibility 11 miles    
Events      
Averages and records for this station are not official NWS values.
T = Trace of Precipitation, MM = Missing Value Source: NWS Daily Summary

Daily Weather History Graph

Daily Weather History Graph

Search for Another Location

Airport:

Trip Planner

Search our weather history database for the weather conditions in past years. The results will help you decide how hot, cold, wet, or windy it might be!

Date:

Astronomy

Jan. 24, 2014 Rise Set
Actual Time 7:27 AM CST 5:52 PM CST
Civil Twilight 7:00 AM CST 6:18 PM CST
Nautical Twilight 6:30 AM CST 6:48 PM CST
Astronomical Twilight 6:01 AM CST 7:17 PM CST
Moon 1:00 AM CST (1/24) 12:08 PM CST (1/24)
Length of Visible Light 11h 17m
Length of Day
10h 24m
Last Quarter, 44% of the Moon is Illuminated
Jan 24
Last Quarter
Jan 30
New
Feb 6
First Quarter
Feb 14
Full
Feb 22
Last Quarter

Hourly Weather History & Observations

Time (CST) Temp. Windchill Dew Point Humidity Pressure Visibility Wind Dir Wind Speed Gust Speed Precip Events Conditions
12:15 AM 23.9 °F 13.5 °F -3.5 °F 30% 30.77 in 10.0 mi North 10.4 mph - N/A   Overcast
12:35 AM 23.5 °F 13.0 °F -3.5 °F 31% 30.77 in 10.0 mi North 10.4 mph 16.1 mph N/A   Overcast
12:55 AM 22.8 °F 12.9 °F -3.1 °F 32% 30.77 in 10.0 mi North 9.2 mph - N/A   Mostly Cloudy
1:15 AM 22.3 °F 13.0 °F -2.7 °F 33% 30.77 in 10.0 mi NNE 8.1 mph - N/A   Scattered Clouds
1:35 AM 22.5 °F 11.1 °F -2.9 °F 33% 30.77 in 10.0 mi North 11.5 mph - N/A   Mostly Cloudy
1:55 AM 22.1 °F 10.0 °F -2.9 °F 33% 30.77 in 10.0 mi North 12.7 mph - N/A   Overcast
2:15 AM 22.1 °F 10.6 °F -3.1 °F 33% 30.77 in 10.0 mi North 11.5 mph - N/A   Overcast
2:35 AM 22.1 °F 12.8 °F -2.9 °F 33% 30.77 in 10.0 mi NNE 8.1 mph - N/A   Overcast
2:55 AM 22.1 °F 11.3 °F -2.7 °F 34% 30.77 in 10.0 mi North 10.4 mph - N/A   Overcast
3:15 AM 21.7 °F 12.3 °F -2.2 °F 35% 30.76 in 10.0 mi North 8.1 mph - N/A   Scattered Clouds
3:35 AM 21.2 °F 12.6 °F -0.6 °F 39% 30.76 in 10.0 mi North 6.9 mph - N/A   Clear
3:55 AM 20.5 °F 11.7 °F 1.4 °F 44% 30.75 in 10.0 mi North 6.9 mph - N/A   Clear
4:15 AM 19.9 °F 12.1 °F 1.0 °F 44% 30.75 in 10.0 mi North 5.8 mph - N/A   Clear
4:35 AM 20.1 °F 11.3 °F 1.0 °F 44% 30.74 in 10.0 mi North 6.9 mph - N/A   Clear
4:55 AM 19.8 °F 10.8 °F 0.9 °F 44% 30.74 in 10.0 mi North 6.9 mph - N/A   Clear
5:47 AM 17.6 °F 8.2 °F 1.4 °F 49% 30.73 in 13.0 mi NNW 6.9 mph - N/A   Clear
6:51 AM 15.8 °F 8.6 °F 1.4 °F 53% 30.72 in 13.0 mi NNW 4.6 mph - N/A   Scattered Clouds
8:47 AM 19.4 °F 14.3 °F 1.4 °F 46% 30.71 in 13.0 mi West 3.5 mph - N/A   Mostly Cloudy
9:47 AM 23.0 °F 15.8 °F 3.2 °F 43% 30.70 in 15.0 mi WSW 5.8 mph - N/A   Scattered Clouds
11:47 AM 28.4 °F 19.7 °F 1.4 °F 31% 30.64 in 13.0 mi WSW 9.2 mph - N/A   Partly Cloudy
2:47 PM 37.4 °F 30.8 °F -4.0 °F 17% 30.46 in 13.0 mi South 9.2 mph - N/A   Partly Cloudy
4:54 PM 41.0 °F 35.8 °F -4.0 °F 15% 30.39 in 13.0 mi SSW 8.1 mph - N/A   Clear
5:47 PM 39.2 °F 33.6 °F 1.4 °F 21% 30.37 in 13.0 mi SE 8.1 mph - N/A   Clear
6:49 PM 39.2 °F 33.0 °F 5.0 °F 24% 30.34 in 13.0 mi South 9.2 mph - N/A   Clear
7:47 PM 37.4 °F 31.4 °F 5.0 °F 26% 30.32 in 15.0 mi South 8.1 mph - N/A   Clear
9:15 PM 36.0 °F 30.3 °F 8.6 °F 32% 30.31 in 10.0 mi SSW 6.9 mph - N/A   Clear
9:35 PM 35.6 °F 31.7 °F 10.4 °F 35% 30.31 in 10.0 mi SSW 4.6 mph - N/A   Clear
9:55 PM 35.2 °F 29.5 °F 11.1 °F 37% 30.31 in 10.0 mi SSW 6.9 mph - N/A   Clear
10:15 PM 35.1 °F 28.6 °F 11.1 °F 37% 30.30 in 10.0 mi SSW 8.1 mph - N/A   Clear
10:35 PM 34.7 °F 28.1 °F 10.9 °F 37% 30.29 in 10.0 mi SSW 8.1 mph - N/A   Clear
10:55 PM 34.3 °F 28.4 °F 11.1 °F 38% 30.28 in 10.0 mi SSW 6.9 mph - N/A   Clear
11:15 PM 33.8 °F 27.7 °F 11.7 °F 40% 30.27 in 10.0 mi SW 6.9 mph - N/A   Clear
11:35 PM 33.8 °F 27.7 °F 11.5 °F 40% 30.26 in 10.0 mi SW 6.9 mph - N/A   Clear
11:55 PM 33.8 °F 28.6 °F 11.7 °F 40% 30.25 in 10.0 mi SW 5.8 mph - N/A   Clear